Location: Bratislava
(48.1500°N, 17.1170°E)
Time: 14:27:20
(UTC+02:00)

Amateur Radio Satellites - All Passes

Search period start: 21 October 2017 13:57
Search period end: 22 October 2017 13:57
Location: Bratislava, 48.1500°N, 17.1170°E

Satellite Date Start Highest point End Downlink Frequencies (MHz)
Time Altitude Azimuth
ITAMSAT 1 21 Oct 13:57:35 14:00:45 17° 55° (NE) 14:03:57 435.822/435.867
Gurwin Techsat 1B 21 Oct 13:58:41 14:03:59 69° 258° (WSW) 14:09:18 435.225
50 SAT 21 Oct 14:10:03 14:13:16 46° 100° (E) 14:16:27 437.505
SO-50 21 Oct 14:10:09 14:14:17 32° 39° (NE) 14:18:26 436.795
UKube-1 21 Oct 14:11:17 14:14:57 26° 95° (E) 14:18:36 .
nSIGHT-1 21 Oct 14:11:59 14:15:08 50° 12° (NNE) 14:18:17 .
BEESAT 2 21 Oct 14:12:01 14:15:54 45° 314° (NW) 14:19:51 435.950
VELOX 1 21 Oct 14:21:24 14:25:38 45° 291° (WNW) 14:29:53 145.980
AO-85 21 Oct 14:25:02 14:28:50 50° 313° (NW) 14:32:48 145.980
BEESAT 3 21 Oct 14:28:29 14:31:16 18° 328° (NNW) 14:34:04 437.485
ISS 21 Oct 14:47:03 14:50:20 65° 18° (NNE) 14:53:34 437.550
PCSat 21 Oct 14:54:39 14:58:04 17° 26° (NNE) 15:01:28 145.827
MOZHAYETS 4 21 Oct 15:01:41 15:04:25 15° 89° (E) 15:07:07
Oscar 19 21 Oct 15:02:51 15:05:46 15° 272° (W) 15:08:43 437.125/150
SPROUT 21 Oct 15:07:37 15:09:35 13° 302° (WNW) 15:11:33 437.525
AO-7 21 Oct 15:21:02 15:29:21 83° 251° (WSW) 15:37:42 .
DX 1 21 Oct 15:24:54 15:28:59 39° 292° (WNW) 15:33:03 434.975-435.025
ITAMSAT 1 21 Oct 15:34:19 15:39:31 89° 258° (WSW) 15:44:47 435.822/435.867
ITUPSAT 1 21 Oct 15:38:33 15:42:45 29° 95° (E) 15:46:55 437.325
50 SAT 21 Oct 15:43:34 15:45:13 13° 298° (WNW) 15:46:53 437.505
Gurwin Techsat 1B 21 Oct 15:44:46 15:44:54 10° 276° (W) 15:45:02 435.225
UKube-1 21 Oct 15:47:04 15:51:02 35° 293° (WNW) 15:54:59 .
nSIGHT-1 21 Oct 15:48:20 15:51:26 48° 211° (SSW) 15:54:32 .
SO-50 21 Oct 15:50:29 15:54:55 48° 238° (WSW) 15:59:24 436.795
BEESAT 2 21 Oct 15:52:50 15:54:38 12° 336° (NNW) 15:56:26 435.950
BEESAT 21 Oct 15:53:14 15:57:46 40° 98° (E) 16:02:15 436.000
DOVE 4 21 Oct 16:00:12 16:03:22 21° 62° (ENE) 16:06:40 437.250
AO-85 21 Oct 16:08:15 16:10:14 13° 337° (NNW) 16:12:14 145.980
CUTE-I 21 Oct 16:14:54 16:16:34 11° 50° (NE) 16:18:14 437.470
HO-68 21 Oct 16:19:23 16:21:31 11° 38° (NE) 16:23:38 435.675
ISS 21 Oct 16:23:44 16:26:39 30° 216° (SW) 16:29:34 437.550
PCSat 21 Oct 16:37:23 16:42:43 53° 50° (NE) 16:48:01 145.827
MOZHAYETS 4 21 Oct 16:37:29 16:42:03 67° 287° (WNW) 16:46:34
XW-2B 21 Oct 16:43:52 16:45:34 13° 61° (ENE) 16:47:15 145.730 - 145.750
CUBESAT XI-V 21 Oct 16:51:11 16:55:34 42° 98° (E) 16:59:56 437.345
XW-2C 21 Oct 17:05:46 17:08:40 21° 65° (ENE) 17:11:34 145.795 - 145.815
ITUPSAT 1 21 Oct 17:16:13 17:20:39 38° 293° (WNW) 17:25:03 437.325
ITAMSAT 1 21 Oct 17:17:16 17:19:45 13° 273° (W) 17:22:13 435.822/435.867
AO-7 21 Oct 17:17:42 17:23:21 20° 272° (W) 17:29:03 .
BEESAT 21 Oct 17:31:19 17:35:23 28° 297° (WNW) 17:39:26 436.000
DOVE 4 21 Oct 17:36:41 17:40:44 46° 262° (W) 17:45:01 437.250
KAITUO 1B 21 Oct 17:45:26 17:48:56 40° 71° (ENE) 17:52:27 145.475/437.950
XW-2F 21 Oct 17:48:47 17:52:29 56° 74° (ENE) 17:56:12 145.980 - 146.000
CUTE-I 21 Oct 17:50:20 17:55:33 60° 70° (ENE) 18:00:50 437.470
CUBEBUG 2 21 Oct 17:52:55 17:55:23 14° 57° (ENE) 17:57:51 437.445
LilacSat-2 21 Oct 17:56:05 17:59:54 79° 76° (ENE) 18:03:44 437.200
KKS-1 21 Oct 17:57:11 18:01:37 56° 101° (E) 18:06:01 437.445
NUDT-PHONESAT 21 Oct 17:57:45 18:01:23 53° 73° (ENE) 18:05:01 437.300
HO-68 21 Oct 18:00:47 18:07:25 43° 61° (ENE) 18:14:06 435.675
XW-2D 21 Oct 18:01:55 18:05:43 88° 77° (ENE) 18:09:32 145.860 - 145.880
YUBILEINY 21 Oct 18:02:05 18:05:37 13° 45° (NE) 18:09:09 435.215
XW-2B 21 Oct 18:15:27 18:19:15 67° 259° (W) 18:23:02 145.730 - 145.750
CUTE 1.7 + AOD 2 21 Oct 18:16:15 18:19:55 29° 67° (ENE) 18:23:35 437.475
MOZHAYETS 4 21 Oct 18:17:43 18:18:19 10° 306° (NW) 18:18:54
PCSat 21 Oct 18:21:14 18:25:51 29° 249° (WSW) 18:30:27 145.827
SEEDS 21 Oct 18:21:51 18:25:04 22° 64° (ENE) 18:28:17 437.485
STARS 21 Oct 18:27:02 18:31:21 48° 100° (E) 18:35:38 437.465
UWE-3 21 Oct 18:28:03 18:31:08 18° 60° (ENE) 18:34:13 435.000/436.395/437.385
CUBESAT XI-V 21 Oct 18:28:59 18:32:44 25° 296° (WNW) 18:36:30 437.345
XW-2C 21 Oct 18:39:09 18:42:39 35° 263° (W) 18:46:11 145.795 - 145.815
AAUSAT CUBESAT 2 21 Oct 18:43:05 18:45:47 17° 62° (ENE) 18:48:30 437.432
BEESAT 2 21 Oct 19:11:56 19:13:49 13° 25° (NNE) 19:15:42 435.950
XW-2A 21 Oct 19:14:43 19:17:57 40° 71° (ENE) 19:21:11 145.665 - 145.685
AO-73 21 Oct 19:15:52 19:19:31 24° 64° (ENE) 19:23:09 145.935
KAITUO 1B 21 Oct 19:20:35 19:23:06 17° 268° (W) 19:25:38 145.475/437.950
XW-2F 21 Oct 19:25:08 19:26:57 13° 270° (W) 19:28:46 145.980 - 146.000
BEESAT 3 21 Oct 19:25:24 19:28:51 27° 39° (NE) 19:32:14 437.485
CUBEBUG 2 21 Oct 19:26:34 19:31:16 89° 77° (ENE) 19:36:04 437.445
CUTE-I 21 Oct 19:31:57 19:36:01 22° 269° (W) 19:40:06 437.470
AO-85 21 Oct 19:32:12 19:34:51 15° 27° (NNE) 19:37:35 145.980
NUDT-PHONESAT 21 Oct 19:33:43 19:35:33 13° 270° (W) 19:37:24 437.300
KKS-1 21 Oct 19:34:34 19:37:47 20° 299° (WNW) 19:41:01 437.445
ZACube-1 21 Oct 19:37:49 19:42:07 41° 69° (ENE) 19:46:25 437.345
STRAND 1 21 Oct 19:44:47 19:49:24 32° 95° (E) 19:53:59 437.568
HO-68 21 Oct 19:48:15 19:55:06 47° 261° (W) 20:02:00 435.675
CUTE 1.7 + AOD 2 21 Oct 19:51:59 19:55:43 30° 265° (W) 19:59:28 437.475
SEEDS 21 Oct 19:56:34 20:00:31 41° 262° (W) 20:04:29 437.485
YUBILEINY 21 Oct 19:56:38 20:05:09 49° 71° (ENE) 20:13:38 435.215
UWE-3 21 Oct 20:02:25 20:07:04 69° 259° (WSW) 20:11:46 435.000/436.395/437.385
DELFI C3 21 Oct 20:02:39 20:03:27 11° 58° (ENE) 20:04:16 145.870
O/OREOS (USA 219) 21 Oct 20:02:39 20:06:13 23° 103° (ESE) 20:09:49 437.305
STARS 21 Oct 20:03:59 20:07:24 22° 298° (WNW) 20:10:48 437.465
Oscar 11 21 Oct 20:12:40 20:16:54 55° 71° (ENE) 20:21:09 .
AAUSAT CUBESAT 2 21 Oct 20:16:51 20:20:51 54° 260° (W) 20:24:54 437.432
EO-88 21 Oct 20:30:09 20:30:25 10° 59° (ENE) 20:30:41 145.990 - 145.960
Max Valier Satellite 21 Oct 20:40:09 20:42:41 18° 64° (ENE) 20:45:14 145.860
FO-29 21 Oct 20:43:51 20:49:44 29° 92° (E) 20:56:04 435.910
BEESAT 2 21 Oct 20:48:33 20:52:31 48° 46° (NE) 20:56:25 435.950
XW-2A 21 Oct 20:48:55 20:50:52 14° 269° (W) 20:52:49 145.665 - 145.685
AO-73 21 Oct 20:51:07 20:55:30 45° 262° (W) 20:59:53 145.935
BEESAT 3 21 Oct 21:02:45 21:06:34 45° 239° (WSW) 21:10:18 437.485
CUBEBUG 2 21 Oct 21:06:40 21:08:33 12° 274° (W) 21:10:29 437.445
AO-85 21 Oct 21:11:43 21:16:06 57° 48° (NE) 21:20:50 145.980
ZACube-1 21 Oct 21:14:43 21:18:30 25° 267° (W) 21:22:19 437.345
STRAND 1 21 Oct 21:23:51 21:28:39 40° 294° (WNW) 21:33:25 437.568
DELFI C3 21 Oct 21:33:39 21:37:33 89° 235° (SW) 21:41:30 145.870
O/OREOS (USA 219) 21 Oct 21:40:55 21:45:20 47° 302° (WNW) 21:49:48 437.305
Oscar 11 21 Oct 21:50:32 21:53:22 17° 270° (W) 21:56:14 .
YUBILEINY 21 Oct 21:53:44 22:01:53 44° 273° (W) 22:10:02 435.215
EO-88 21 Oct 21:59:49 22:03:28 82° 257° (WSW) 22:07:09 145.990 - 145.960
Max Valier Satellite 21 Oct 22:12:39 22:16:13 42° 261° (W) 22:19:48 145.860
ESTCUBE 1 21 Oct 22:25:52 22:29:32 25° 64° (ENE) 22:33:12 437.505/2401.250
BEESAT 2 21 Oct 22:26:49 22:29:59 22° 245° (WSW) 22:33:06 435.950
FO-29 21 Oct 22:28:24 22:35:08 68° 290° (WNW) 22:42:37 435.910
UNISAT 6 21 Oct 22:35:38 22:40:12 55° 100° (E) 22:44:39 437.425
LO-87 21 Oct 22:45:25 22:48:52 45° 72° (ENE) 22:52:22 145.935 - 145.965
TIGRISAT 21 Oct 22:50:03 22:54:42 71° 102° (ESE) 22:59:12 435.000
AO-85 21 Oct 22:52:38 22:56:16 23° 245° (WSW) 23:00:05 145.980
SPROUT 21 Oct 22:53:10 22:55:13 13° 58° (ENE) 22:57:18 437.525
PRISM 21 Oct 23:17:28 23:21:35 63° 102° (ESE) 23:25:41 437.425
AIST 2D 21 Oct 23:43:03 23:46:12 32° 97° (E) 23:49:20 435.315
QB50P2 21 Oct 23:43:03 23:45:37 15° 90° (E) 23:48:09 145.880/145.840
NANOSAT C BR1 21 Oct 23:45:20 23:47:22 13° 88° (E) 23:49:23 145.865
VELOX 1 21 Oct 23:45:55 23:49:43 30° 66° (ENE) 23:53:33 145.980
DUCHIFAT 1 21 Oct 23:55:01 23:57:24 15° 89° (E) 23:59:45 145.980
RS-15 22 Oct 00:00:20 00:11:22 42° 108° (ESE) 00:22:22 29.354- 29.394
ESTCUBE 1 22 Oct 00:01:54 00:06:09 40° 262° (W) 00:10:23 437.505/2401.250
UNISAT 6 22 Oct 00:13:07 00:16:31 20° 299° (WNW) 00:19:51 437.425
FO-29 22 Oct 00:15:08 00:19:12 17° 308° (NW) 00:23:30 435.910
LO-87 22 Oct 00:20:26 00:22:32 15° 269° (W) 00:24:39 145.935 - 145.965
SPROUT 22 Oct 00:26:12 00:30:30 82° 257° (WSW) 00:34:50 437.525
TIGRISAT 22 Oct 00:27:54 00:30:50 17° 301° (WNW) 00:33:43 435.000
50 SAT 22 Oct 00:41:57 00:44:45 27° 68° (ENE) 00:47:34 437.505
DX 1 22 Oct 00:47:44 00:51:37 33° 66° (ENE) 00:55:32 434.975-435.025
EO-79 22 Oct 00:51:57 00:56:14 69° 103° (ESE) 01:00:27 145.935-145.965
PRISM 22 Oct 00:53:55 00:56:24 16° 300° (WNW) 00:58:52 437.425
POLYITAN 1 22 Oct 00:57:05 01:01:23 78° 102° (ESE) 01:05:37 437.675
UKube-1 22 Oct 01:08:48 01:12:43 35° 67° (ENE) 01:16:39 .
AIST 2D 22 Oct 01:16:39 01:19:12 19° 294° (WNW) 01:21:43 435.315
QB50P2 22 Oct 01:17:34 01:21:48 60° 287° (WNW) 01:25:58 145.880/145.840
NANOSAT C BR1 22 Oct 01:19:18 01:23:33 70° 286° (WNW) 01:27:45 145.865
VELOX 1 22 Oct 01:22:10 01:26:06 32° 264° (W) 01:30:06 145.980
BEESAT 22 Oct 01:28:59 01:30:36 12° 53° (NE) 01:32:14 436.000
Oscar 19 22 Oct 01:29:14 01:33:08 21° 91° (E) 01:37:00 437.125/150
DUCHIFAT 1 22 Oct 01:29:17 01:33:29 63° 288° (WNW) 01:37:38 145.980
BUGSAT 1 22 Oct 01:31:29 01:35:28 38° 98° (E) 01:39:23 437.445
MOZHAYETS 4 22 Oct 02:06:32 02:10:12 24° 63° (ENE) 02:13:53
RS-15 22 Oct 02:10:47 02:23:10 75° 313° (NW) 02:35:27 29.354- 29.394
Gurwin Techsat 1B 22 Oct 02:11:19 02:16:12 35° 96° (E) 02:21:04 435.225
NO-84 22 Oct 02:13:55 02:16:32 16° 127° (SE) 02:19:08 435.350 FM
50 SAT 22 Oct 02:14:38 02:17:05 20° 266° (W) 02:19:34 437.505
M-CUBED/EXP-1 PRIME 22 Oct 02:16:24 02:19:29 27° 103° (ESE) 02:22:44 437.505
DX 1 22 Oct 02:24:06 02:27:49 28° 265° (W) 02:31:35 434.975-435.025
EO-79 22 Oct 02:28:59 02:31:29 15° 301° (WNW) 02:33:56 145.935-145.965
POLYITAN 1 22 Oct 02:34:23 02:36:35 14° 302° (WNW) 02:38:46 437.675
UKube-1 22 Oct 02:45:11 02:48:48 26° 265° (W) 02:52:26 .
ITUPSAT 1 22 Oct 02:48:22 02:53:01 51° 69° (ENE) 02:57:43 437.325
BEESAT 22 Oct 03:02:45 03:07:31 71° 72° (ENE) 03:12:19 436.000
BUGSAT 1 22 Oct 03:07:12 03:10:37 24° 296° (WNW) 03:14:00 437.445
Oscar 19 22 Oct 03:07:47 03:12:50 58° 290° (WNW) 03:17:50 437.125/150
AO-7 22 Oct 03:19:10 03:25:54 27° 92° (E) 03:32:37 .
KKS-1 22 Oct 03:25:22 03:26:57 12° 55° (NE) 03:28:32 437.445
MOZHAYETS 4 22 Oct 03:42:38 03:47:06 47° 261° (W) 03:51:35
ITAMSAT 1 22 Oct 03:44:00 03:48:16 25° 93° (E) 03:52:29 435.822/435.867
NO-84 22 Oct 03:49:06 03:53:24 75° 144° (SE) 03:57:37 435.350 FM
M-CUBED/EXP-1 PRIME 22 Oct 03:50:53 03:53:53 26° 298° (WNW) 03:57:03 437.505
Gurwin Techsat 1B 22 Oct 03:51:17 03:56:10 37° 295° (WNW) 04:01:01 435.225
CUBESAT XI-V 22 Oct 03:57:35 04:02:08 62° 72° (ENE) 04:06:42 437.345
RS-15 22 Oct 04:26:40 04:38:01 39° 343° (NNW) 04:49:07 29.354- 29.394
ITUPSAT 1 22 Oct 04:27:25 04:31:08 22° 268° (W) 04:34:52 437.325
O/OREOS (USA 219) 22 Oct 04:29:44 04:32:23 15° 43° (NE) 04:34:59 437.305
BEESAT 22 Oct 04:42:53 04:45:47 16° 271° (W) 04:48:43 436.000
Oscar 19 22 Oct 04:50:14 04:51:05 10° 310° (NW) 04:51:57 437.125/150
KKS-1 22 Oct 04:58:19 05:02:45 80° 74° (ENE) 05:07:14 437.445
AO-7 22 Oct 05:11:12 05:19:31 79° 293° (WNW) 05:27:49 .
ITAMSAT 1 22 Oct 05:22:55 05:28:01 52° 291° (WNW) 05:33:05 435.822/435.867
STARS 22 Oct 05:26:38 05:30:59 66° 73° (ENE) 05:35:24 437.465
NO-84 22 Oct 05:27:05 05:31:06 38° 344° (NNW) 05:34:58 435.350 FM
STRAND 1 22 Oct 05:29:03 05:30:49 12° 52° (NE) 05:32:34 437.568
DOVE 4 22 Oct 05:30:43 05:35:21 37° 96° (E) 05:40:09 437.250
CUBESAT XI-V 22 Oct 05:36:56 05:39:56 17° 270° (W) 05:42:55 437.345
CUTE-I 22 Oct 06:04:35 06:08:12 18° 89° (E) 06:11:47 437.470
O/OREOS (USA 219) 22 Oct 06:07:55 06:12:34 81° 63° (ENE) 06:17:10 437.305
XW-2C 22 Oct 06:08:24 06:11:00 18° 92° (E) 06:13:35 145.795 - 145.815
SO-50 22 Oct 06:08:40 06:12:07 22° 114° (ESE) 06:15:36 436.795
KKS-1 22 Oct 06:38:02 06:39:53 12° 272° (W) 06:41:46 437.445
RS-15 22 Oct 06:43:12 06:54:28 39° 17° (NNE) 07:05:15 29.354- 29.394
KAITUO 1B 22 Oct 06:46:34 06:49:58 34° 97° (E) 06:53:20 145.475/437.950
XW-2F 22 Oct 06:51:05 06:54:43 49° 99° (E) 06:58:19 145.980 - 146.000
NUDT-PHONESAT 22 Oct 06:57:55 07:01:26 43° 99° (E) 07:04:56 437.300
LilacSat-2 22 Oct 06:59:44 07:03:31 72° 102° (ESE) 07:07:16 437.200
FO-29 22 Oct 07:03:05 07:06:13 16° 51° (NE) 07:09:30 435.910
STRAND 1 22 Oct 07:03:56 07:09:01 64° 71° (ENE) 07:14:08 437.568
XW-2D 22 Oct 07:04:45 07:08:31 80° 103° (ESE) 07:12:15 145.860 - 145.880
AO-7 22 Oct 07:04:58 07:11:08 24° 315° (NW) 07:17:19 .
STARS 22 Oct 07:05:17 07:07:47 15° 271° (W) 07:10:18 437.465
NO-84 22 Oct 07:05:30 07:09:15 31° 5° (N) 07:12:48 435.350 FM
DOVE 4 22 Oct 07:08:31 07:12:58 34° 293° (WNW) 07:17:35 437.250
HO-68 22 Oct 07:11:47 07:18:02 31° 93° (E) 07:24:13 435.675
CUBEBUG 2 22 Oct 07:15:06 07:17:56 16° 88° (E) 07:20:43 437.445
XW-2B 22 Oct 07:18:18 07:22:03 75° 285° (WNW) 07:25:46 145.730 - 145.750
PCSat 22 Oct 07:23:53 07:27:54 22° 107° (ESE) 07:31:56 145.827
CUTE 1.7 + AOD 2 22 Oct 07:32:34 07:36:26 34° 96° (E) 07:40:17 437.475
SEEDS 22 Oct 07:36:40 07:40:07 24° 94° (E) 07:43:32 437.485
XW-2C 22 Oct 07:41:51 07:45:22 39° 290° (WNW) 07:48:51 145.795 - 145.815
CUTE-I 22 Oct 07:43:26 07:48:48 74° 289° (WNW) 07:54:10 437.470
SO-50 22 Oct 07:47:49 07:52:14 56° 313° (NW) 07:56:42 436.795
O/OREOS (USA 219) 22 Oct 07:49:12 07:51:17 13° 263° (W) 07:53:22 437.305
UWE-3 22 Oct 07:49:17 07:52:35 20° 90° (E) 07:55:49 435.000/436.395/437.385
AAUSAT CUBESAT 2 22 Oct 07:55:47 07:58:40 18° 91° (E) 08:01:32 437.432
UNISAT 6 22 Oct 08:04:25 08:06:00 12° 55° (NE) 08:07:36 437.425
XW-2A 22 Oct 08:05:26 08:08:16 25° 95° (E) 08:11:04 145.665 - 145.685
TIGRISAT 22 Oct 08:17:45 08:20:11 14° 57° (ENE) 08:22:37 435.000
KAITUO 1B 22 Oct 08:20:58 08:23:46 21° 295° (WNW) 08:26:33 145.475/437.950
XW-2F 22 Oct 08:26:11 08:28:28 16° 297° (WNW) 08:30:44 145.980 - 146.000
NUDT-PHONESAT 22 Oct 08:32:37 08:34:59 17° 297° (WNW) 08:37:20 437.300
AO-73 22 Oct 08:35:40 08:39:24 27° 94° (E) 08:43:01 145.935
LilacSat-2 22 Oct 08:35:50 08:37:15 12° 300° (WNW) 08:38:40 437.200
XW-2D 22 Oct 08:41:09 08:42:06 11° 301° (WNW) 08:43:04 145.860 - 145.880
NO-84 22 Oct 08:43:11 08:47:13 63° 27° (NNE) 08:50:55 435.350 FM
STRAND 1 22 Oct 08:45:00 08:48:39 19° 270° (W) 08:52:20 437.568
FO-29 22 Oct 08:45:01 08:50:19 83° 73° (ENE) 08:56:09 435.910
CUBEBUG 2 22 Oct 08:50:24 08:55:03 66° 287° (WNW) 08:59:31 437.445
RS-15 22 Oct 08:57:02 09:09:12 76° 48° (NE) 09:20:38 29.354- 29.394
ZACube-1 22 Oct 08:58:27 09:02:46 51° 99° (E) 09:06:56 437.345
HO-68 22 Oct 08:59:06 09:06:12 63° 293° (WNW) 09:13:16 435.675
YUBILEINY 22 Oct 09:02:09 09:10:20 49° 88° (E) 09:18:36 435.215
PCSat 22 Oct 09:05:22 09:10:46 70° 307° (NW) 09:16:13 145.827
ISS 22 Oct 09:07:20 09:08:36 12° 134° (SE) 09:09:51 437.550
CUTE 1.7 + AOD 2 22 Oct 09:08:39 09:12:08 26° 294° (WNW) 09:15:37 437.475
SEEDS 22 Oct 09:12:04 09:15:52 35° 291° (WNW) 09:19:40 437.485
UWE-3 22 Oct 09:24:58 09:29:21 50° 289° (WNW) 09:33:35 435.000/436.395/437.385
CUTE-I 22 Oct 09:25:18 09:27:58 14° 307° (NW) 09:30:37 437.470
AAUSAT CUBESAT 2 22 Oct 09:30:24 09:34:22 47° 289° (WNW) 09:38:20 437.432
SO-50 22 Oct 09:30:51 09:33:39 16° 336° (NNW) 09:36:29 436.795
Oscar 11 22 Oct 09:32:02 09:36:21 70° 101° (ESE) 09:40:38 .
UNISAT 6 22 Oct 09:37:13 09:41:52 73° 73° (ENE) 09:46:35 437.425
XW-2A 22 Oct 09:38:14 09:40:53 22° 293° (WNW) 09:43:31 145.665 - 145.685
Max Valier Satellite 22 Oct 09:40:00 09:41:53 13° 90° (E) 09:43:45 145.860
TIGRISAT 22 Oct 09:51:29 09:56:09 90° 255° (WSW) 10:00:54 435.000
nSIGHT-1 22 Oct 10:04:07 10:07:05 36° 146° (SSE) 10:10:03 .
PRISM 22 Oct 10:09:42 10:13:44 72° 74° (ENE) 10:17:48 437.425
AO-73 22 Oct 10:11:43 10:15:41 34° 292° (WNW) 10:19:31 145.935
EO-79 22 Oct 10:15:20 10:16:29 11° 56° (NE) 10:17:39 145.935-145.965
POLYITAN 1 22 Oct 10:19:57 10:21:41 12° 57° (ENE) 10:23:26 437.675
AIST 2D 22 Oct 10:20:48 10:23:31 21° 67° (ENE) 10:26:14 435.315
NO-84 22 Oct 10:21:03 10:24:20 26° 227° (SW) 10:27:23 435.350 FM
CUBEBUG 2 22 Oct 10:30:07 10:30:42 10° 306° (NW) 10:31:17 437.445
FO-29 22 Oct 10:33:24 10:36:24 15° 275° (W) 10:39:32 435.910
ZACube-1 22 Oct 10:35:30 10:38:41 20° 298° (WNW) 10:41:48 437.345
QB50P2 22 Oct 10:38:47 10:41:52 20° 62° (ENE) 10:44:57 145.880/145.840
NANOSAT C BR1 22 Oct 10:40:29 10:43:13 17° 61° (ENE) 10:45:59 145.865
DELFI C3 22 Oct 10:41:17 10:45:16 89° 287° (WNW) 10:49:15 145.870
ISS 22 Oct 10:41:18 10:44:31 62° 152° (SSE) 10:47:45 437.550
HO-68 22 Oct 10:48:24 10:52:36 17° 315° (NW) 10:56:48 435.675
DUCHIFAT 1 22 Oct 10:49:56 10:52:51 18° 62° (ENE) 10:55:47 145.980
PCSat 22 Oct 10:51:18 10:55:10 19° 329° (NNW) 10:59:03 145.827
BEESAT 3 22 Oct 10:57:36 10:58:56 11° 109° (ESE) 11:00:15 437.485
EO-88 22 Oct 10:58:15 11:01:54 78° 105° (ESE) 11:05:30 145.990 - 145.960
YUBILEINY 22 Oct 10:59:03 11:07:15 45° 291° (WNW) 11:15:33 435.215
Oscar 11 22 Oct 11:09:30 11:11:58 15° 300° (WNW) 11:14:25 .
RS-15 22 Oct 11:10:18 11:20:42 38° 253° (WSW) 11:30:39 29.354- 29.394
Max Valier Satellite 22 Oct 11:12:26 11:16:02 51° 288° (WNW) 11:19:34 145.860
UNISAT 6 22 Oct 11:16:25 11:19:06 15° 272° (W) 11:21:48 437.425
TIGRISAT 22 Oct 11:31:47 11:33:31 12° 274° (W) 11:35:16 435.000
nSIGHT-1 22 Oct 11:40:07 11:43:17 58° 345° (NNW) 11:46:27 .
LO-87 22 Oct 11:41:52 11:45:13 33° 97° (E) 11:48:32 145.935 - 145.965
EO-79 22 Oct 11:47:14 11:51:30 80° 75° (ENE) 11:55:48 145.935-145.965
PRISM 22 Oct 11:47:58 11:49:30 12° 272° (W) 11:51:01 437.425
ESTCUBE 1 22 Oct 11:50:28 11:54:29 31° 96° (E) 11:58:28 437.505/2401.250
POLYITAN 1 22 Oct 11:52:30 11:56:47 90° 78° (ENE) 12:01:08 437.675
AIST 2D 22 Oct 11:53:29 11:56:34 29° 264° (W) 11:59:40 435.315
Gurwin Techsat 1B 22 Oct 11:59:14 12:02:02 15° 53° (NE) 12:04:51 435.225
SPROUT 22 Oct 12:09:40 12:11:47 13° 88° (E) 12:13:54 437.525
QB50P2 22 Oct 12:13:09 12:17:18 51° 260° (W) 12:21:31 145.880/145.840
NANOSAT C BR1 22 Oct 12:14:17 12:18:29 61° 259° (W) 12:22:44 145.865
ISS 22 Oct 12:17:55 12:21:05 47° 351° (N) 12:24:17 437.550
DELFI C3 22 Oct 12:18:29 12:19:22 11° 302° (WNW) 12:20:15 145.870
BEESAT 2 22 Oct 12:20:31 12:23:48 24° 116° (ESE) 12:27:07 435.950
DUCHIFAT 1 22 Oct 12:23:58 12:28:07 54° 259° (W) 12:32:20 145.980
BUGSAT 1 22 Oct 12:24:04 12:28:03 43° 70° (ENE) 12:32:06 437.445
BEESAT 3 22 Oct 12:31:48 12:35:49 89° 305° (NW) 12:39:52 437.485
AO-7 22 Oct 12:34:07 12:38:43 16° 37° (NE) 12:43:18 .
EO-88 22 Oct 12:34:17 12:34:58 10° 301° (WNW) 12:35:38 145.990 - 145.960
PCSat 22 Oct 12:40:15 12:40:53 10° 355° (N) 12:41:30 145.827
Oscar 19 22 Oct 12:49:11 12:54:05 45° 67° (ENE) 12:58:58 437.125/150
SO-50 22 Oct 12:55:26 12:58:24 17° 26° (NNE) 13:01:23 436.795
YUBILEINY 22 Oct 13:04:42 13:07:02 11° 318° (NW) 13:09:23 435.215
M-CUBED/EXP-1 PRIME 22 Oct 13:05:36 13:08:53 64° 68° (ENE) 13:12:08 437.505
VELOX 1 22 Oct 13:07:53 13:11:58 35° 97° (E) 13:16:03 145.980
AO-85 22 Oct 13:09:52 13:13:36 46° 121° (ESE) 13:17:27 145.980
LO-87 22 Oct 13:15:42 13:18:26 20° 295° (WNW) 13:21:09 145.935 - 145.965
nSIGHT-1 22 Oct 13:16:48 13:19:53 43° 5° (N) 13:22:58 .
EO-79 22 Oct 13:26:18 13:27:50 12° 273° (W) 13:29:22 145.935-145.965
ESTCUBE 1 22 Oct 13:27:17 13:31:15 32° 294° (WNW) 13:35:13 437.505/2401.250
50 SAT 22 Oct 13:29:50 13:31:47 15° 92° (E) 13:33:44 437.505
ITAMSAT 1 22 Oct 13:31:40 13:31:52 10° 49° (NE) 13:32:05 435.822/435.867
POLYITAN 1 22 Oct 13:32:33 13:33:12 10° 274° (W) 13:33:51 437.675
Gurwin Techsat 1B 22 Oct 13:35:50 13:41:09 79° 73° (ENE) 13:46:29 435.225
SPROUT 22 Oct 13:43:52 13:48:10 70° 286° (WNW) 13:52:25 437.525
